Location: Biltmore Gardens
(41.6070°N, 83.4666°W)
Time: 14:26:29
(UTC+00:00)

SL-16 R/B - Pass Details

Date: 14 July 2020
Orbit: 839 x 850 km, 71.0° (Epoch: 04 August)

Event Time Altitude Azimuth Distance (km) Brightness Sun altitude
Exits shadow 03:51:44 11° 221° (SW) 2,420 4.4 -22.0°
Maximum altitude 03:57:08 54° 298° (WNW) 1,027 2.9 -22.5°
Drops below altitude 10° 04:02:43 10° 15° (NNE) 2,481 5.3 -22.9°
Sets 04:05:15 0° 21° (NNE) 3,421 6.0 -23.1°
